Havre, MT

5:57 AM MST on January 18, 2018 (GMT -0700)
Havre City-County

Weather History for KHVR - April, 2014

Change the Weather History Date:

Saturday, April 12, 2014

  Actual Average Record
Temperature  
Mean Temperature 32 °F 43 °F  
Max Temperature 42 °F 57 °F 80 °F (1976)
Min Temperature 21 °F 30 °F 7 °F (1881)
Degree Days  
Heating Degree Days 33 22  
Month to date heating degree days 271 282  
Since 1 July heating degree days 7674 7400  
Cooling Degree Days 0 0  
Month to date cooling degree days 0 0  
Year to date cooling degree days 0 0  
Moisture  
Dew Point 24 °F    
Average Humidity 70    
Maximum Humidity 92    
Minimum Humidity 47    
Precipitation  
Precipitation 0.05 in 0.02 in 0.29 in (1968)
Month to date precipitation 0.05 0.27  
Year to date precipitation 1.85 1.42  
Snow  
Snow T in 0.10 in 4.10 in (1986)
Month to date snowfall T 1.7  
Since 1 July snowfall 44.4 35.9  
Snow Depth 0.00 in    
Sea Level Pressure  
Sea Level Pressure 30.11 in    
Wind  
Wind Speed 11 mph (NNW)    
Max Wind Speed 20 mph    
Max Gust Speed 24 mph    
Visibility 10 miles    
Events Rain , Snow    
T = Trace of Precipitation, MM = Missing Value Source: NWS Daily Summary

Daily Weather History Graph

Daily Weather History Graph

Search for Another Location

Airport or City:

Trip Planner

Search our weather history database for the weather conditions in past years. The results will help you decide how hot, cold, wet, or windy it might be!

Date:

Astronomy

Apr. 12, 2014 Rise Set
Actual Time 6:34 AM MDT 8:06 PM MDT
Civil Twilight 6:01 AM MDT 8:38 PM MDT
Nautical Twilight 5:21 AM MDT 9:18 PM MDT
Astronomical Twilight 4:38 AM MDT 10:02 PM MDT
Moon 5:37 PM MDT (4/12) 5:15 AM MDT (4/12)
Length of Visible Light 14h 37m
Length of Day
13h 31m
Waxing Gibbous, 93% of the Moon is Illuminated
Apr 12
Waxing Gibbous
Apr 15
Full
Apr 22
Last Quarter
Apr 29
New
May 6
First Quarter

Hourly Weather History & Observations

Time (MDT) Temp. Windchill Dew Point Humidity Pressure Visibility Wind Dir Wind Speed Gust Speed Precip Events Conditions
12:53 AM 41.0 °F 34.7 °F 35.1 °F 79% 29.83 in 10.0 mi WSW 10.4 mph - N/A   Overcast
1:53 AM 41.0 °F 37.1 °F 37.0 °F 86% 29.84 in 10.0 mi WNW 5.8 mph - 0.00 in Rain Light Rain
2:53 AM 39.9 °F 33.4 °F 37.0 °F 89% 29.87 in 7.0 mi NW 10.4 mph - 0.03 in Rain Rain
3:53 AM 39.0 °F 32.3 °F 36.0 °F 89% 29.88 in 10.0 mi NW 10.4 mph - 0.02 in   Overcast
4:53 AM 37.9 °F 32.1 °F 35.1 °F 89% 29.91 in 10.0 mi NNW 8.1 mph - N/A   Overcast
5:33 AM 36.0 °F 26.3 °F 30.9 °F 82% 29.92 in 9.0 mi NNW 16.1 mph 24.2 mph 0.00 in Snow Light Snow
5:53 AM 35.1 °F 24.5 °F 28.9 °F 78% 29.95 in 9.0 mi NNW 18.4 mph - 0.00 in Snow Light Snow
6:08 AM 34.0 °F 24.6 °F 28.9 °F 82% 29.94 in 10.0 mi NNW 13.8 mph - 0.00 in   Overcast
6:33 AM 33.1 °F 21.9 °F 27.0 °F 78% 29.96 in 10.0 mi NNW 18.4 mph 24.2 mph 0.00 in   Overcast
6:53 AM 32.0 °F 21.6 °F 27.0 °F 82% 30.01 in 10.0 mi NW 15.0 mph - 0.00 in   Overcast
7:53 AM 30.9 °F 21.7 °F 26.1 °F 82% 30.04 in 10.0 mi NW 11.5 mph - N/A   Overcast
8:53 AM 30.9 °F 21.7 °F 25.0 °F 79% 30.08 in 10.0 mi North 11.5 mph - N/A   Overcast
9:53 AM 32.0 °F 23.6 °F 24.1 °F 73% 30.11 in 10.0 mi North 10.4 mph - N/A   Overcast
10:53 AM 32.0 °F 22.1 °F 23.0 °F 69% 30.14 in 10.0 mi NNW 13.8 mph - N/A   Overcast
11:53 AM 32.0 °F 22.1 °F 24.1 °F 73% 30.15 in 10.0 mi NNW 13.8 mph - N/A   Overcast
12:53 PM 32.0 °F 22.1 °F 23.0 °F 69% 30.17 in 10.0 mi NNW 13.8 mph - N/A   Overcast
1:30 PM 30.9 °F 20.7 °F 23.0 °F 72% 30.12 in 10.0 mi North 13.8 mph - N/A   Overcast
1:53 PM 32.0 °F 22.5 °F 23.0 °F 69% 30.19 in 10.0 mi NNW 12.7 mph - 0.00 in   Overcast
2:34 PM 33.1 °F 23.4 °F 23.0 °F 66% 30.13 in 10.0 mi NNW 13.8 mph - N/A   Overcast
2:53 PM 33.1 °F 22.6 °F 21.9 °F 64% 30.19 in 10.0 mi North 16.1 mph - N/A   Overcast
3:10 PM 34.0 °F 24.2 °F 21.0 °F 59% 30.14 in 10.0 mi North 15.0 mph - N/A   Overcast
3:53 PM 33.1 °F 23.0 °F 21.0 °F 61% 30.22 in 10.0 mi NNW 15.0 mph - N/A   Overcast
4:53 PM 32.0 °F 23.0 °F 19.9 °F 61% 30.23 in 10.0 mi North 11.5 mph - 0.00 in   Overcast
5:53 PM 33.1 °F 24.9 °F 19.0 °F 56% 30.24 in 10.0 mi North 10.4 mph - N/A   Overcast
6:53 PM 33.1 °F 25.5 °F 17.1 °F 52% 30.25 in 10.0 mi North 9.2 mph - N/A   Overcast
7:53 PM 33.1 °F 24.9 °F 16.0 °F 50% 30.27 in 10.0 mi NNW 10.4 mph - N/A   Overcast
8:53 PM 32.0 °F 27.5 °F 17.1 °F 54% 30.30 in 10.0 mi NW 4.6 mph - N/A   Overcast
9:53 PM 32.0 °F 26.4 °F 17.1 °F 54% 30.31 in 10.0 mi North 5.8 mph - N/A   Overcast
10:53 PM 28.0 °F 21.7 °F 19.0 °F 69% 30.32 in 10.0 mi WNW 5.8 mph - N/A   Mostly Cloudy
11:53 PM 24.1 °F 15.2 °F 17.1 °F 75% 30.34 in 10.0 mi West 8.1 mph - N/A   Clear